Indianapolis, IN

9:10 AM EST on November 20, 2019 (GMT -0500)
Indianapolis Terry

Weather History for KTYQ - October, 2019

Change the Weather History Date:

Wednesday, October 23, 2019

  Actual Average (WUND) Record (WUND)
Temperature  
Mean Temperature 48 °F -  
Max Temperature 62 °F - - (-1)
Min Temperature 35 °F - - (-1)
Degree Days  
Heating Degree Days 16    
Moisture  
Dew Point 34 °F    
Average Humidity 58    
Maximum Humidity 94    
Minimum Humidity 34    
Precipitation  
Precipitation 0.00 in - - ()
Sea Level Pressure  
Sea Level Pressure 30.02 in    
Wind  
Wind Speed 11 mph ()    
Max Wind Speed 22 mph    
Max Gust Speed 30 mph    
Visibility 9.9 miles    
Events      
Averages and records for this station are not official NWS values.
T = Trace of Precipitation, MM = Missing Value Source: Averaged Metar Reports

Daily Weather History Graph

Daily Weather History Graph

Search for Another Location

Airport or City:

Astronomy

Oct. 23, 2019 Rise Set
Actual Time 8:03 AM EDT 6:54 PM EDT
Civil Twilight 7:36 AM EDT 7:21 PM EDT
Nautical Twilight 7:04 AM EDT 7:53 PM EDT
Astronomical Twilight 6:33 AM EDT 8:24 PM EDT
Moon 2:21 AM EDT (10/23) 4:44 PM EDT (10/23)
Length of Visible Light 11h 45m
Length of Day
10h 50m
Waning Crescent, 27% of the Moon is Illuminated
Oct 23
Waning Crescent
Oct 27
New
Nov 4
First Quarter
Nov 12
Full
Nov 19
Last Quarter

Hourly Weather History & Observations

Time (EDT) Temp. Windchill Dew Point Humidity Pressure Visibility Wind Dir Wind Speed Gust Speed Precip Events Conditions
12:15 AM 44.6 °F 39.2 °F 38.3 °F 79% 29.92 in 10.0 mi WSW 10.4 mph - N/A   Clear
12:35 AM 44.4 °F 39.0 °F 36.9 °F 75% 29.92 in 10.0 mi WSW 10.4 mph 17.3 mph N/A   Clear
12:55 AM 43.9 °F 37.5 °F 36.0 °F 74% 29.92 in 10.0 mi WSW 12.7 mph - N/A   Clear
1:15 AM 43.9 °F 37.9 °F 35.4 °F 72% 29.92 in 10.0 mi West 11.5 mph - N/A   Clear
1:35 AM 43.2 °F 37.9 °F 35.1 °F 73% 29.92 in 10.0 mi West 9.2 mph - N/A   Clear
1:55 AM 42.3 °F 36.8 °F 34.7 °F 75% 29.94 in 10.0 mi WSW 9.2 mph - N/A   Clear
2:15 AM 41.7 °F 36.1 °F 34.7 °F 76% 29.94 in 10.0 mi WSW 9.2 mph - N/A   Clear
2:35 AM 41.2 °F 36.0 °F 34.3 °F 77% 29.94 in 10.0 mi WSW 8.1 mph - N/A   Clear
2:55 AM 40.5 °F 35.8 °F 34.0 °F 78% 29.94 in 10.0 mi WSW 6.9 mph - N/A   Clear
3:15 AM 39.6 °F 34.7 °F 34.0 °F 80% 29.95 in 10.0 mi WSW 6.9 mph - N/A   Clear
3:35 AM 39.7 °F 33.7 °F 33.8 °F 79% 29.96 in 10.0 mi WSW 9.2 mph - N/A   Clear
3:55 AM 39.6 °F 34.7 °F 33.4 °F 79% 29.96 in 10.0 mi WSW 6.9 mph - N/A   Clear
4:15 AM 39.2 °F 33.0 °F 33.3 °F 79% 29.97 in 10.0 mi SW 9.2 mph - N/A   Clear
4:35 AM 39.4 °F 34.5 °F 33.1 °F 78% 29.97 in 10.0 mi WSW 6.9 mph - N/A   Clear
4:55 AM 38.5 °F 32.7 °F 32.9 °F 80% 29.96 in 10.0 mi SW 8.1 mph - N/A   Clear
5:15 AM 38.3 °F 31.9 °F 33.1 °F 81% 29.97 in 10.0 mi SSW 9.2 mph - N/A   Clear
5:35 AM 37.2 °F 31.2 °F 33.4 °F 86% 29.98 in 10.0 mi SSW 8.1 mph - N/A   Clear
5:55 AM 37.4 °F 30.8 °F 34.0 °F 87% 29.99 in 10.0 mi SSW 9.2 mph - N/A   Clear
6:15 AM 36.9 °F 31.4 °F 34.0 °F 89% 29.99 in 10.0 mi SW 6.9 mph - N/A   Clear
6:35 AM 36.9 °F 31.4 °F 33.8 °F 89% 29.99 in 10.0 mi SW 6.9 mph - N/A   Clear
6:55 AM 35.6 °F 29.9 °F 34.0 °F 94% 30.01 in 10.0 mi SW 6.9 mph - N/A   Clear
7:15 AM 35.6 °F 29.9 °F 34.0 °F 94% 30.02 in 10.0 mi SW 6.9 mph - N/A   Clear
7:35 AM 35.6 °F 29.9 °F 34.0 °F 94% 30.02 in 10.0 mi SSW 6.9 mph - N/A   Clear
7:55 AM 35.6 °F 29.9 °F 33.8 °F 93% 30.03 in 10.0 mi SW 6.9 mph - N/A   Clear
8:15 AM 36.0 °F 30.3 °F 33.8 °F 92% 30.03 in 10.0 mi SSW 6.9 mph - N/A   Clear
8:35 AM 37.6 °F 32.3 °F 33.8 °F 86% 30.04 in 10.0 mi SSW 6.9 mph - N/A   Clear
8:55 AM 39.2 °F 34.2 °F 33.6 °F 80% 30.05 in 10.0 mi SSW 6.9 mph - N/A   Clear
9:15 AM 41.2 °F 36.6 °F 33.8 °F 75% 30.06 in 10.0 mi SW 6.9 mph - N/A   Clear
9:35 AM 43.3 °F 37.2 °F 33.3 °F 68% 30.07 in 10.0 mi SSW 11.5 mph - N/A   Clear
9:55 AM 45.3 °F 39.3 °F 33.1 °F 62% 30.07 in 10.0 mi SW 12.7 mph 18.4 mph N/A   Clear
10:15 AM 47.3 °F - 32.7 °F 57% 30.07 in 10.0 mi SW 13.8 mph 17.3 mph N/A   Clear
10:35 AM 49.1 °F - 32.9 °F 54% 30.07 in 10.0 mi SSW 12.7 mph 18.4 mph N/A   Clear
10:55 AM 50.2 °F - 33.3 °F 52% 30.07 in 10.0 mi SSW 12.7 mph 20.7 mph N/A   Mostly Cloudy
11:15 AM 52.5 °F - 32.9 °F 47% 30.07 in 10.0 mi SSW 15.0 mph 20.7 mph N/A   Scattered Clouds
11:35 AM 53.8 °F - 32.4 °F 44% 30.07 in 10.0 mi SSW 18.4 mph - N/A   Scattered Clouds
11:55 AM 55.0 °F - 32.9 °F 43% 30.07 in 10.0 mi SW 15.0 mph 24.2 mph N/A   Scattered Clouds
12:15 PM 55.6 °F - 32.4 °F 41% 30.07 in 10.0 mi SSW 17.3 mph 27.6 mph N/A   Clear
12:35 PM 56.8 °F - 32.7 °F 40% 30.07 in 10.0 mi SSW 17.3 mph 25.3 mph N/A   Clear
12:55 PM 57.9 °F - 32.2 °F 38% 30.07 in 10.0 mi SSW 17.3 mph - N/A   Clear
1:15 PM 59.0 °F - 33.3 °F 38% 30.07 in 10.0 mi SSW 18.4 mph 24.2 mph N/A   Clear
1:35 PM 59.5 °F - 32.9 °F 37% 30.06 in 10.0 mi SW 15.0 mph 24.2 mph N/A   Clear
1:55 PM 61.0 °F - 34.0 °F 36% 30.06 in 10.0 mi SW 13.8 mph 24.2 mph N/A   Clear
2:15 PM 62.1 °F - 32.9 °F 34% 30.05 in 10.0 mi SW 20.7 mph 25.3 mph N/A   Clear
2:35 PM 61.9 °F - 32.9 °F 34% 30.04 in 10.0 mi SW 18.4 mph 25.3 mph N/A   Clear
2:55 PM 61.9 °F - 32.9 °F 34% 30.03 in 10.0 mi SSW 19.6 mph 28.8 mph N/A   Clear
3:15 PM 62.2 °F - 33.4 °F 34% 30.03 in 10.0 mi SSW 21.9 mph 29.9 mph N/A   Clear
3:35 PM 61.3 °F - 32.9 °F 34% 30.03 in 10.0 mi SSW 15.0 mph 25.3 mph N/A   Clear
3:55 PM 62.4 °F - 33.8 °F 34% 30.02 in 10.0 mi SSW 19.6 mph 26.5 mph N/A   Clear
4:15 PM 61.9 °F - 32.9 °F 34% 30.02 in 10.0 mi SSW 17.3 mph 27.6 mph N/A   Clear
4:35 PM 62.1 °F - 33.1 °F 34% 30.02 in 10.0 mi SSW 16.1 mph 25.3 mph N/A   Clear
4:55 PM 62.1 °F - 33.4 °F 34% 30.02 in 10.0 mi SSW 20.7 mph 26.5 mph N/A   Clear
5:15 PM 61.9 °F - 32.9 °F 34% 30.02 in 10.0 mi SSW 18.4 mph 25.3 mph N/A   Clear
5:35 PM 61.7 °F - 33.1 °F 34% 30.02 in 10.0 mi SSW 15.0 mph 24.2 mph N/A   Clear
5:55 PM 60.8 °F - 32.9 °F 35% 30.03 in 10.0 mi SSW 17.3 mph 24.2 mph N/A   Clear
6:15 PM 59.9 °F - 33.1 °F 36% 30.03 in 5.0 mi SSW 17.3 mph 24.2 mph N/A   Haze
6:35 PM 58.6 °F - 33.8 °F 39% 30.03 in 10.0 mi South 12.7 mph - N/A   Clear
6:55 PM 57.4 °F - 33.8 °F 41% 30.03 in 10.0 mi South 11.5 mph - N/A   Clear
7:15 PM 56.5 °F - 34.2 °F 43% 30.03 in 10.0 mi South 9.2 mph - N/A   Clear
7:35 PM 56.1 °F - 34.5 °F 44% 30.04 in 5.0 mi South 11.5 mph - N/A   Haze
7:55 PM 54.0 °F - 35.1 °F 49% 30.05 in 10.0 mi South 9.2 mph - N/A   Clear
8:15 PM 55.4 °F - 35.1 °F 46% 30.05 in 10.0 mi South 12.7 mph - N/A   Clear
8:35 PM 55.4 °F - 34.7 °F 46% 30.05 in 10.0 mi South 11.5 mph 17.3 mph N/A   Clear
8:55 PM 55.2 °F - 34.7 °F 46% 30.04 in 10.0 mi South 13.8 mph 19.6 mph N/A   Clear
9:15 PM 55.4 °F - 34.5 °F 45% 30.04 in 10.0 mi South 15.0 mph 25.3 mph N/A   Clear
9:35 PM 54.5 °F - 34.9 °F 48% 30.04 in 10.0 mi South 13.8 mph - N/A   Clear
9:55 PM 53.8 °F - 34.9 °F 49% 30.05 in 10.0 mi South 12.7 mph 18.4 mph N/A   Clear
10:15 PM 53.8 °F - 35.1 °F 49% 30.05 in 10.0 mi South 11.5 mph - N/A   Clear
10:35 PM 52.9 °F - 35.2 °F 51% 30.07 in 10.0 mi South 10.4 mph 17.3 mph N/A   Clear
10:55 PM 52.7 °F - 35.2 °F 52% 30.08 in 10.0 mi South 12.7 mph 18.4 mph N/A   Clear
11:15 PM 52.2 °F - 35.6 °F 53% 30.08 in 10.0 mi South 11.5 mph - N/A   Clear
11:35 PM 52.0 °F - 35.6 °F 54% 30.08 in 10.0 mi South 12.7 mph - N/A   Clear
11:55 PM 52.0 °F - 35.6 °F 54% 30.08 in 10.0 mi South 11.5 mph 17.3 mph N/A   Clear